レモン彗星

C/2018 C2 ( Lemmon )

English version
Home page
Updated on July 30, 2018

---------------------------------------------------------------------

・ プロフィール

発見日 2018年2月5日
発見光度 19.9等
発見者 Mount Lemmon Survey

・ 写真集

・ 軌道要素

Epoch 2018 June 11.0 TT = JDT 2458280.5
T 2018 June 2.21930 TT                                  MPCW
q   1.9565256            (2000.0)            P               Q
z  -0.0009239      Peri.  134.13614     -0.57782858     +0.58836995
 +/-0.0000015      Node    91.13944     -0.81108088     -0.49114962
e   1.0018076      Incl.   34.45368     +0.09089524     -0.64233391
From 706 observations 2018 Jan. 28-May 24, mean residual 0".3.

・ 星図

・ 光度変化

        m1 = 8.5 + 5 logΔ + 22.0 log r(t - 30)

---------------------------------------------------------------------

軌道要素はM.P.E.C. 2018-K95に掲載されたものです。
星図はステラナビゲータ Ver.10 (アストロアーツ) で作成したものです。
光度グラフはComet for Windowsで作成したものです。

---------------------------------------------------------------------

Copyright(C) Seiichi Yoshida (comet@aerith.net). All rights reserved.